Yuma, AZ

12:27 AM MST on September 25, 2016 (GMT -0700)
Yuma Marine Corps Air Station

Weather History for KNYL - October, 2012

Change the Weather History Date:

Saturday, October 13, 2012

  Actual Average Record
Temperature  
Mean Temperature 72 °F 78 °F  
Max Temperature 86 °F 91 °F 105 °F (1958)
Min Temperature 57 °F 66 °F 44 °F (1924)
Degree Days  
Heating Degree Days 0 0  
Month to date heating degree days 0 0  
Since 1 July heating degree days 0 0  
Cooling Degree Days 7 14  
Month to date cooling degree days 232 207  
Year to date cooling degree days 4567 4381  
Growing Degree Days 22 (Base 50)    
Moisture  
Dew Point 44 °F    
Average Humidity 43    
Maximum Humidity 67    
Minimum Humidity 19    
Precipitation  
Precipitation 0.00 in 0.01 in 0.24 in (1887)
Month to date precipitation 0.03 0.11  
Year to date precipitation 2.37 2.73  
Sea Level Pressure  
Sea Level Pressure 30.06 in    
Wind  
Wind Speed 5 mph (NNW)    
Max Wind Speed 13 mph    
Max Gust Speed 17 mph    
Visibility 10 miles    
Events      
T = Trace of Precipitation, MM = Missing Value Source: NWS Daily Summary

Daily Weather History Graph

Daily Weather History Graph

Search for Another Location

Airport or City:

Trip Planner

Search our weather history database for the weather conditions in past years. The results will help you decide how hot, cold, wet, or windy it might be!

Date:

Astronomy

Oct. 13, 2012 Rise Set
Actual Time 6:41 AM MST 6:07 PM MST
Civil Twilight 6:16 AM MST 6:31 PM MST
Nautical Twilight 5:47 AM MST 7:00 PM MST
Astronomical Twilight 5:19 AM MST 7:28 PM MST
Moon 4:40 AM MST (10/13) 4:50 PM MST (10/13)
Length of Visible Light 12h 15m
Length of Day
11h 25m
Waning Crescent, 4% of the Moon is Illuminated
Oct 13
Waning Crescent
Oct 15
New
Oct 21
First Quarter
Oct 29
Full
Nov 6
Last Quarter

Hourly Weather History & Observations

Time (MST) Temp. Dew Point Humidity Pressure Visibility Wind Dir Wind Speed Gust Speed Precip Events Conditions
12:55 AM 66.0 °F 45.0 °F 47% 30.07 in 10.0 mi NNW 3.5 mph - N/A   Clear
1:55 AM 64.0 °F 48.0 °F 56% 30.07 in 10.0 mi Calm Calm - N/A   Clear
2:55 AM 62.1 °F 48.0 °F 60% 30.07 in 10.0 mi Calm Calm - N/A   Clear
3:55 AM 61.0 °F 48.0 °F 62% 30.07 in 10.0 mi Calm Calm - N/A   Clear
4:55 AM 62.1 °F 46.9 °F 58% 30.07 in 10.0 mi Calm Calm - N/A   Clear
5:55 AM 57.9 °F 46.9 °F 67% 30.09 in 10.0 mi Calm Calm - N/A   Clear
6:55 AM 57.0 °F 46.9 °F 69% 30.10 in 10.0 mi Calm Calm - N/A   Clear
7:55 AM 61.0 °F 48.0 °F 62% 30.12 in 10.0 mi NW 3.5 mph - N/A   Clear
8:55 AM 68.0 °F 46.9 °F 47% 30.14 in 10.0 mi Calm Calm - N/A   Clear
9:55 AM 73.9 °F 45.0 °F 35% 30.14 in 10.0 mi North 4.6 mph - N/A   Clear
10:55 AM 78.1 °F 43.0 °F 29% 30.13 in 10.0 mi NNE 5.8 mph - N/A   Clear
11:55 AM 81.0 °F 41.0 °F 24% 30.11 in 10.0 mi North 4.6 mph - N/A   Clear
12:55 PM 84.0 °F 39.0 °F 20% 30.08 in 10.0 mi North 9.2 mph - N/A   Clear
1:55 PM 84.0 °F 37.9 °F 19% 30.04 in 10.0 mi NNE 5.8 mph - N/A   Clear
2:55 PM 84.9 °F 39.0 °F 20% 30.02 in 10.0 mi NNE 9.2 mph - N/A   Partly Cloudy
3:55 PM 86.0 °F 39.0 °F 19% 30.00 in 10.0 mi North 9.2 mph - N/A   Partly Cloudy
4:55 PM 84.9 °F 37.0 °F 18% 29.99 in 10.0 mi North 10.4 mph - N/A   Partly Cloudy
5:55 PM 82.0 °F 39.0 °F 22% 29.98 in 10.0 mi North 10.4 mph - N/A   Partly Cloudy
6:55 PM 80.1 °F 41.0 °F 25% 29.99 in 10.0 mi North 8.1 mph - N/A   Partly Cloudy
7:55 PM 78.1 °F 43.0 °F 29% 30.01 in 10.0 mi WNW 4.6 mph - N/A   Partly Cloudy
8:55 PM 73.9 °F 44.1 °F 34% 30.01 in 10.0 mi WNW 5.8 mph - N/A   Clear
9:55 PM 72.0 °F 45.0 °F 38% 30.02 in 10.0 mi WNW 5.8 mph - N/A   Clear
10:55 PM 73.0 °F 45.0 °F 37% 30.02 in 10.0 mi WNW 5.8 mph - N/A   Clear
11:55 PM 71.1 °F 45.0 °F 39% 30.01 in 10.0 mi NW 4.6 mph - N/A   Clear